Preview of NWS' New Version of Forecast
This preview is not operational and should not be used for support decisions.

Regional Weather Roundup (RWR)

Issued by Cleveland, OH (CLE)

                            
000
ASUS41 KCLE 200712
RWRCLE
OHIO REGIONAL WEATHER ROUNDUP
NATIONAL WEATHER SERVICE WILMINGTON, OH
300 AM EDT MON MAY 20 2019

NOTE: "FAIR" INDICATES FEW OR NO CLOUDS BELOW 12,000 FEET WITH NO
SIGNIFICANT WEATHER AND/OR OBSTRUCTIONS TO VISIBILITY.

OHZ001>008-015>018-024>027-034-035-043-044-200800-
   NORTHWEST OHIO
  
CITY           SKY/WX    TMP DP  RH WIND       PRES   REMARKS
DEFIANCE       FAIR      63  57  81 SW6       29.78S                  
FINDLAY        FAIR      64  60  87 SW9       29.79R                  
TOLEDO EXPRESS FAIR      63  58  83 W9        29.76S                  
TOLEDO EXEC    FAIR      60  59  96 SW7       29.78R                  
LIMA           MOCLDY    62  59  90 SW8       29.82R                  
$$
 
OHZ009>014-019>023-028>033-038-089-200800-
   NORTHEAST OHIO
  
CITY           SKY/WX    TMP DP  RH WIND       PRES   REMARKS
CLE-HOPKINS    MOCLDY    65  61  87 SW10      29.79R                  
CLE-LAKEFRONT  CLOUDY    66  60  81 SW14      29.76R                  
CUY CO. ARPT   CLOUDY    66  61  84 SW16      29.78R                  
LORAIN-ELYRIA  MOCLDY    65  58  78 W10       29.79R                  
ASHTABULA      FAIR      63  61  93 SW9       29.77R                  
AKRON-CANTON   MOCLDY    66  58  75 W12       29.81R                  
WOOSTER        FAIR      63  58  83 SW10      29.83R                  
MANSFIELD      FAIR      61  59  93 SW9G20    29.83R                  
YOUNGSTOWN     MOCLDY    65  60  84 SW9       29.79S                  
$$
 
OHZ042-051>053-060>062-070>072-077>081-200800-
  SOUTHWEST OHIO
  
CITY           SKY/WX    TMP DP  RH WIND       PRES   REMARKS
CINC-COVINGTON MOCLDY    62  60  93 SW7       29.89S                  
CINC-LUNKEN    MOCLDY    63  61  93 S3        29.90R                  
HAMILTON       FAIR      61  59  93 CALM      29.89R                  
DAYTON         FAIR      62  59  90 SW9       29.88R                  
WRIGHT-PAT AFB FAIR      58  57  96 S8        29.87R                  
DAYTON GENERAL FAIR      62  59  90 SW6       29.87R                  
WILMINGTON     MOCLDY    62  62 100 SW8       29.88S                  
$$

OHZ036-037-039>041-045>050-054>059-063>069-073>076-082>088-200800-
  CENTRAL AND SOUTHEAST OHIO
  
CITY           SKY/WX    TMP DP  RH WIND       PRES   REMARKS
COLUMBUS       MOCLDY    62  60  93 S7        29.86R                  
OSU AIRPORT    FAIR      62  60  93 SW8       29.86R                  
BOLTON FIELD   NOT AVBL                                               
RICKENBACK AFB CLOUDY    61  61  98 SW8       29.87R                  
NEWARK         CLOUDY    64  60  87 SW7       29.86S                  
MARION         FAIR      61  57  87 SW12      29.84R                  
LANCASTER      CLOUDY    63  61  93 S7        29.87F                  
ZANESVILLE     CLOUDY    67  57  70 SW7       29.86S                  
NEW PHILLY     FAIR      67  60  78 SW12      29.83S                  
$$